Regional Weather Roundup
Issued by NWS

Home | Current Version | Previous Version | Graphics & Text | Print | Product List | Glossary Off
Versions: 1 2 3 4 5 6 7 8 9 10 11 12 13 14 15 16 17 18 19 20 21 22 23 24 25 26 27 28 29 30 31 32 33 34 35 36 37 38 39 40 41 42 43 44 45 46 47 48 49 50

302
ASUS43 KDTX 271601
RWRMI
MICHIGAN HOURLY REGIONAL WEATHER ROUNDUP
NATIONAL WEATHER SERVICE DETROIT/PONTIAC MI
1100 AM EST MON FEB 27 2017

NOTE: "FAIR" INDICATES FEW OR NO CLOUDS BELOW 12,000 FEET WITH NO
SIGNIFICANT WEATHER AND/OR OBSTRUCTION TO VISIBILITY.

MIZ047>049-052>055-059>063-066>070-074>076-081>083-271700-
SOUTHEAST LOWER MICHIGAN

CITY           SKY/WX    TMP DP  RH WIND       PRES   REMARKS
ADRIAN         SUNNY     40  27  59 SW3       30.24R
ALMA           SUNNY     39  24  54 S9        30.22R WCI  33
ANN ARBOR      SUNNY     42  28  57 MISG      30.23R
BAD AXE        MOSUNNY   38  26  61 W5        30.23R WCI  34
CARO           SUNNY     41  26  54 W6        30.22R
DETROIT CITY   SUNNY     43  28  55 W9        30.24R
DETROIT        MOSUNNY   44  27  51 SW7       30.25R
FLINT          SUNNY     41  26  55 SW7       30.23R
GROSSE ILE     SUNNY     44  27  51 S8        30.24R
HILLSDALE      SUNNY     41  28  60 CALM      30.20R
HOWELL         CLOUDY    40  28  61 CALM      30.22R

CITY           SKY/WX    TMP DP  RH WIND       PRES   REMARKS
JACKSON        SUNNY     42  27  55 NW3       30.21R
LAMBERTVILLE   SUNNY     47  28  47 SW3       30.24S
LANSING        SUNNY     42  24  49 W6        30.22R
LAPEER         FAIR      43  25  48 SW8       30.22R
MASON          PTSUNNY   40  30  68 CALM      30.22R
MONROE         SUNNY     45  31  57 SW9       30.24R
PONTIAC        MOSUNNY   42  27  55 SW6       30.21R
PORT HOPE        N/A     35  27  72 NE3       30.22R
PORT HURON     SUNNY     43  28  56 SW6       30.24R
TRI CITIES     SUNNY     39  26  59 SW8       30.22R WCI  33
MIDLAND        FAIR      40  23  50 SW7       30.21R WCI  35
TROY           SUNNY     44  25  47 SW7       30.25R
SAGINAW HB     SUNNY     41  23  48 SW9       30.22R
$$
MIZ043>046-050>051-056>058-064>065-071>073-077>080-271700-
SOUTHWEST LOWER MICHIGAN

CITY           SKY/WX    TMP DP  RH WIND       PRES   REMARKS
BATTLE CREEK   SUNNY     41  30  65 CALM      30.21R
BENTON HARBOR  SUNNY     44  29  55 VRB5      30.20R
BIG RAPIDS     SUNNY     37  23  55 S6        30.17S WCI  33
COLDWATER      SUNNY     44  28  53 S5        30.21R
FREMONT        FAIR      38  23  54 S7        30.18S WCI  33
HOLLAND        MOSUNNY   42  27  55 SE7       30.20R
GRAND RAPIDS   MOSUNNY   40  23  50 S6        30.20R
IONIA          FAIR      39  26  60 SE5       30.20S
KALAMAZOO      SUNNY     42  27  55 SE6       30.21R
LUDINGTON      SUNNY     37  27  66 SE7       30.16R WCI  32
MARSHALL       SUNNY     42  28  58 CALM      30.21R
MOUNT PLEASANT SUNNY     38  23  54 SW3       30.20R
MUSKEGON       MOSUNNY   42  25  50 E5        30.19S
SOUTH HAVEN    CLOUDY    41  31  66 S5        30.20R
$$
MIZ016>042-271700-
NORTHERN LOWER MICHIGAN

CITY           SKY/WX    TMP DP  RH WIND       PRES   REMARKS
ALPENA         SUNNY     32  15  49 W7        30.20S WCI  26
BEAVER ISLAND  PTSUNNY   29  18  62 S7        30.16R WCI  22
BELLAIRE       SUNNY     32  18  58 SE3       30.18R
CADILLAC       SUNNY     32  23  70 SE7       30.14R WCI  26
CHARLEVOIX     SUNNY     30  16  54 SE5       30.19S WCI  26
FRANKFORT      SUNNY     34  24  67 S8        30.15S WCI  27
GAYLORD        SUNNY     29  15  56 S7        30.14R WCI  22
GRAYLING       SUNNY     33  19  58 CALM      30.16S
HARBOR SPRINGS SUNNY     29  14  53 S6        30.17R WCI  23
HOUGHTON LAKE  SUNNY     33  21  61 S8        30.18R WCI  26
MANISTEE       SUNNY     36  24  62 S8        30.17R WCI  30
OSCODA         SUNNY     38  21  51 W5        30.20S WCI  34
PELLSTON       SUNNY     28  13  53 S6        30.17S WCI  22
ROGERS CITY    SUNNY     29  17  61 SW6       30.20S WCI  23
TRAVERSE CITY  SUNNY     35  19  52 VRB3      30.15S
$$
MIZ007>008-015-271700-
EASTERN UPPER MICHIGAN

CITY           SKY/WX    TMP DP  RH WIND       PRES   REMARKS
KINROSS        SUNNY     28  13  53 SW6       30.17R WCI  22
MACKINAC ISLAN SUNNY     26  15  62 S7        30.17R WCI  18
NEWBERRY       MOSUNNY   25  11  56 S7        30.13S WCI  17
S. S. MARIE    SUNNY     26  13  57 SW7       30.16R WCI  18
MUNISING         N/A     25   8  48 S10       30.13R WCI  15
$$
MIZ004>006-011>014-085-271700-
CENTRAL UPPER MICHIGAN

CITY           SKY/WX    TMP DP  RH WIND       PRES   REMARKS
MANISTIQUE     CLOUDY    25  17  71 S5        30.15R WCI  20
ESCANABA       CLOUDY    30  18  60 S9        30.14R WCI  22
MENOMINEE      FLURRIES  31  20  63 S10       30.13S WCI  22
SAWYER-GWINN   CLOUDY    18   9  68 S8        30.09R WCI   7
$$
MIZ001>003-009>011-084-271700-
WESTERN UPPER MICHIGAN

CITY           SKY/WX    TMP DP  RH WIND       PRES   REMARKS
IRON MOUNTAIN  CLOUDY    25   9  50 SE10      30.06R WCI  15
HOUGHTON       CLOUDY    21   6  52 S8        30.02R WCI  11
COPPER HARBOR    N/A     24  11  57 W8        30.05S WCI  15
IRONWOOD       CLOUDY    27  18  69 S7        29.98S WCI  19
$$

ABBREVIATIONS USED IN REMARKS
   TC - TEMPERATURE IN CELSIUS
  WCI - WIND CHILL INDEX
   HX - HEAT INDEX
  VSB - VISIBILITY





USA.gov is the U.S. government's official web portal to all federal, state and local government web resources and services.